This is the latest recevied weather packets stored in our database for station/object LX0APE-4. If no packets are shown the sender has not sent any weather packets the latest 10 day(s).
| Time | Temp. | Humidity | Pressure | Rain* | Wind** | Luminosity | Snow |
|---|---|---|---|---|---|---|---|
| 1777026138 | 15.56° C | 30% | 5019.2 hPa | 0 mm | - | - | - |
| 1777025838 | 15.56° C | 28% | 5019.3 hPa | 0 mm | - | - | - |
| 1777025538 | 15° C | 29% | 5019.3 hPa | 0 mm | - | - | - |
| 1777025238 | 14.44° C | 30% | 5019.3 hPa | 0 mm | - | - | - |
| 1777024938 | 14.44° C | 33% | 5019.3 hPa | 0 mm | - | - | - |
| 1777024638 | 13.89° C | 35% | 5019.4 hPa | 0 mm | - | - | - |
| 1777024343 | 13.89° C | 37% | 5019.3 hPa | 0 mm | - | - | - |
| 1777024338 | 13.89° C | 37% | 5019.3 hPa | 0 mm | - | - | - |
| 1777024038 | 13.89° C | 39% | 5019.4 hPa | 0 mm | - | - | - |
| 1777023738 | 13.89° C | 41% | 5019.6 hPa | 0 mm | - | - | - |
| 1777023438 | 13.33° C | 42% | 5019.6 hPa | 0 mm | - | - | - |
| 1777023138 | 13.33° C | 44% | 5019.8 hPa | 0 mm | - | - | - |
| 1777022838 | 13.33° C | 44% | 5019.5 hPa | 0 mm | - | - | - |
| 1777022539 | 13.33° C | 45% | 5019.6 hPa | 0 mm | - | - | - |
| 1777022254 | 13.33° C | 46% | 5019.6 hPa | 0 mm | - | - | - |
| 1777021939 | 13.33° C | 46% | 5019.8 hPa | 0 mm | - | - | - |
| 1777021638 | 12.78° C | 47% | 5019.7 hPa | 0 mm | - | - | - |
| 1777021340 | 12.78° C | 49% | 5019.8 hPa | 0 mm | - | - | - |
| 1777021038 | 12.22° C | 48% | 5019.9 hPa | 0 mm | - | - | - |
| 1777020739 | 12.22° C | 49% | 5019.7 hPa | 0 mm | - | - | - |
| 1777020438 | 11.67° C | 49% | 5019.8 hPa | 0 mm | - | - | - |
| 1777020151 | 11.67° C | 49% | 5019.7 hPa | 0 mm | - | - | - |
| 1777019843 | 11.11° C | 49% | 5019.8 hPa | 0 mm | - | - | - |
| 1777019839 | 11.11° C | 49% | 5019.8 hPa | 0 mm | - | - | - |
| 1777018939 | 10.56° C | 54% | 5019.9 hPa | 0 mm | - | - | - |
* Rain latest hour (hover to see other rain measurements)
** Current wind speed in m/s (hover to see current wind gust speed)